sat.trackr.live / text

‹ back to catalog

HAWK-12A

NORAD 64623 · 2025-138C

PAYLOAD ACTIVE UNKNOWN

§ Identity

Operator
Country
US
Launch date
2025-06-26
Launch site
RLLB
Launch vehicle
Mass (kg)
RCS (m²)

External: N2YO · Heavens-Above · Gunter

§ Orbital elements

Epoch: 2026-09-21T18:38:03.482880Z

Period
94.81 min
Inclination
97.4463°
Eccentricity
0.0014445
Mean motion
15.18811176 rev/d
Perigee alt
499.5 km
Apogee alt
519.4 km
Semi-major
6,887.6 km
B*
1.1010e-4
RAAN
266.0469°
Arg perigee
154.6046°
Mean anomaly
205.5902°
Rev number
6,852

§ Raw data

HAWK-12A1 64623U 25138C   26264.77642920  .00002228  00000+0  11010-3 0  99962 64623  97.4463 266.0469 0014445 154.6046 205.5902 15.18811176 68526

JSON: /api/v1/satellites/64623 · /tle

For live sub-satellite position, see the globe view (requires WebGL).

§ Visibility from observer

Set your observer location to see the next 7 days of passes ≥ 10°. The values pass through the URL so the page stays shareable.

No JS? Fill the form by hand. The geolocation button needs JavaScript.